Flag for U.S.A. Weather past 2 weeks in Kalispell, Montana, U.S.A.

20 °F


Feels Like: 20 °F
Forecast: 12 / 24 °F
Wind: No wind

Location: Kalispell - Glacier Park International

Current Time: Nov 30, 2015 at 9:13:06 PM

Latest Report: Nov 30, 2015 at 7:55 PM

Visibility: 10 mi

Pressure: 30.30 "Hg (26.99 "Hg at 902m altitude)

Humidity: 85%

Dew point: 16 °F

Location of KalispellLocation

Historic Weather in Kalispell — Graph


Kalispell temperature yesterday

Maximum temperature yesterday: 19 °F (at 3:55 PM)
Minimum temperature yesterday: 15 °F (at 7:55 AM)
Average temperature yesterday: 17 °F

Past Weeks' High & Low Weather Summary

High50 °F (Nov 17, 4:55 PM)96% (Nov 23, 7:55 AM)30.72 "Hg (Nov 23, 7:55 AM)
Low0 °F (Nov 26, 4:55 AM)30% (Nov 18, 1:55 PM)29.22 "Hg (Nov 17, 9:55 PM)
Average25 °F72%30.23 "Hg
* Reported Nov 15 7:55 PM — Nov 30 7:55 PM, Kalispell, Weather by CustomWeather, © 2015

Note: Actual official high and low records may vary slightly from our data, if they occured in-between our weather recording intervals... More about our weather records


Kalispell weather history for previous 24 hours

Time TempWeatherWind HumidityBarometerVisibility
7:55 PM
Mon, Nov 30
20 °FOvercast.No wind85%30.30 "Hg10 mi
6:55 PM20 °FOvercast.3 mph85%30.29 "Hg10 mi
5:55 PM20 °FOvercast.No wind89%30.29 "Hg7 mi
4:55 PM20 °FIce fog.No wind89%30.29 "Hg6 mi
3:55 PM20 °FIce fog.3 mph89%30.29 "Hg6 mi
2:55 PM20 °FIce fog.5 mph85%30.29 "Hg6 mi
1:57 PM20 °FLight snow. Ice fog.3 mph85%30.16 "Hg1 mi
12:55 PM20 °FOvercast.No wind82%30.30 "Hg6 mi
11:55 AM19 °FIce fog.No wind85%30.32 "Hg6 mi
10:55 AM19 °FIce fog.3 mph88%30.34 "Hg6 mi
9:55 AM19 °FIce fog.3 mph88%30.34 "Hg4 mi
8:55 AM18 °FIce fog.No wind92%30.33 "Hg1 mi
7:55 AM17 °FIce fog.No wind95%30.33 "Hg1 mi
6:55 AM17 °FIce fog.No wind92%30.32 "Hg4 mi
5:55 AM17 °FIce fog.No wind92%30.32 "Hg5 mi
4:55 AM17 °FIce fog.No wind92%30.32 "Hg5 mi
4:04 AM17 °FIce fog.No wind92%30.19 "Hg4 mi
3:55 AM16 °FIce fog.3 mph92%30.33 "Hg4 mi
2:55 AM17 °FIce fog.No wind92%30.33 "Hg6 mi
1:55 AM17 °FLow clouds.No wind88%30.33 "Hg10 mi
12:55 AM17 °FLow clouds.No wind88%30.34 "Hg9 mi
11:55 PM
Sun, Nov 29
17 °FOvercast.3 mph88%30.36 "Hg10 mi
10:55 PM17 °FOvercast.3 mph83%30.36 "Hg10 mi
9:55 PM17 °FOvercast.3 mph83%30.37 "Hg9 mi
Weather by CustomWeather, © 2015

See weather overviewHow to use our weather pages